COSMOS 2251 DEB, 33789

Orbit data source: Space-Track

COSMOS 2251 DEB, 33789 is space debris in LEO originally from a launch on Wed, 16 Jun 1993 UTC launched from the Plesetsk Missile And Space Complex (PKMTR). The debris from Iridium 33, an American commercial communications satellite, has been tracked extensively since its accidental collision with the defunct Russian satellite Cosmos 2251 in 2009. This event, occurring at high speed in low Earth orbit (LEO), generated thousands of pieces of space debris, significantly increasing the risk of further collisions. The Iridium 33 debris cloud has impacted space traffic management and orbital debris mitigation strategies, making it a subject of ongoing study in space situational awareness.

Loading next visibility...
Identifier
33789, 1993-036AE
Orbit
LEO
Country
Flag of CISCIS
Related business
Manufacturer
Unknown
Mission
Spacecraft
Bus & Motor
Unknown
Mass
Unknown
Launch date (UTC)
1993-06-16 (33 years ago)
Launch vehicle
Unknown
Launch site
Plesetsk Missile And Space Complex (PKMTR)
Object type
Payload
Rocket body
Debris
Shape & HBR
Unknown shape, 0.2 m
Radar Cross Section
Medium (>0.1 m² and <1 m²)

Expand to show TLE details & history
Last TLE update: 10 hours ago

TLE from 10 hours ago
0 COSMOS 2251 DEB
1 33789U 93036AE  26121.53263022  .00000328  00000-0  23123-3 0  9993
2 33789  74.0644 210.1076 0240516 292.9412 166.7126 13.89001443870367
Epoch: 2026-05-01T12:46Z
TLE epoch observation values (Epoch: 2026-05-01T12:46:59.251Z)
Latitude
71.1973°
Longitude
-77.65033°
Altitude
1,115.423 km
Speed
7.215 km/s
True Right ascension
22h 14m 14s
True Declination
71° 05' 50"
Sunlit
Object was in daylight at epoch
Visualization orbit readout
Latitude
Unknown
Longitude
Unknown
Altitude
Unknown
Speed
Unknown
Apparent Right ascension
Unknown
Apparent Declination
Unknown
Sunlit
N/A
Visualization observer readout
Local Sidereal Time
06:26:10
Azimuth
Unknown
Elevation
Unknown
Doppler factor
Unknown
Orbital elements
Apogee altitude
1,105.572 km
Perigee altitude
754.037 km
Semi-major axis
7,307.941 km
Eccentricity
0.02405
Inclination
74.0644°
RAAN
210.1076°
Arg. of periapsis
292.9412°
True anomaly
167.32801°
Mean anomaly
166.7126°
Eccentric anomaly
167.02208°
Mean motion
3.47417 °/min
Orbital period
103.62 mins
BSTAR
0.00023123
Loading maneuver chart data...
Computing Atmospheric mass density...
Loading historical data...
Loading historical data...
Loading historical data...
Loading historical data...
Loading historical data...
Loading historical data...
Loading historical data...

Documentation

Showing up to 5 results
|